Time,TemperatureF,DewpointF,PressureIn,WindDirection,WindDirectionDegrees,WindSpeedMPH,WindSpeedGustMPH,Humidity,HourlyPrecipIn,Conditions,Clouds,dailyrainin,SoftwareType,DateUTC
2013-06-03 00:04:00,57.7,53.0,29.90,North,5,1.0,6.0,83,0.00,,,0.00,weatherlink.com 1.10,2013-06-03 04:04:00,
2013-06-03 00:19:00,57.6,53.0,29.90,NNW,329,4.0,6.0,83,0.00,,,0.00,weatherlink.com 1.10,2013-06-03 04:19:00,
2013-06-03 00:34:00,57.3,52.0,29.90,North,349,2.0,6.0,82,0.00,,,0.00,weatherlink.com 1.10,2013-06-03 04:34:00,
2013-06-03 00:49:00,56.9,52.0,29.90,NNE,24,9.0,9.0,83,0.00,,,0.00,weatherlink.com 1.10,2013-06-03 04:49:00,
2013-06-03 01:04:00,56.6,51.0,29.90,NNW,339,2.0,8.0,81,0.00,,,0.00,weatherlink.com 1.10,2013-06-03 05:04:00,
2013-06-03 01:19:00,56.4,51.0,29.90,NNW,338,3.0,6.0,83,0.00,,,0.00,weatherlink.com 1.10,2013-06-03 05:19:00,
2013-06-03 01:34:00,56.2,50.0,29.90,NNE,33,4.0,8.0,81,0.00,,,0.00,weatherlink.com 1.10,2013-06-03 05:34:00,
2013-06-03 01:49:00,56.1,50.0,29.90,North,350,2.0,6.0,81,0.00,,,0.00,weatherlink.com 1.10,2013-06-03 05:49:00,
2013-06-03 02:04:00,56.0,49.0,29.91,North,355,2.0,7.0,77,0.00,,,0.00,weatherlink.com 1.10,2013-06-03 06:04:00,
2013-06-03 02:19:00,55.9,48.0,29.92,NW,309,1.0,10.0,75,0.00,,,0.00,weatherlink.com 1.10,2013-06-03 06:19:00,
2013-06-03 02:34:00,55.7,49.0,29.91,North,355,2.0,5.0,77,0.00,,,0.00,weatherlink.com 1.10,2013-06-03 06:34:00,
2013-06-03 02:49:00,55.4,50.0,29.91,North,355,0.0,6.0,82,0.00,,,0.00,weatherlink.com 1.10,2013-06-03 06:49:00,
2013-06-03 03:04:00,54.9,50.0,29.92,NNE,24,5.0,10.0,82,0.00,,,0.00,weatherlink.com 1.10,2013-06-03 07:04:00,
2013-06-03 03:19:00,54.4,48.0,29.92,NNE,32,5.0,8.0,79,0.00,,,0.00,weatherlink.com 1.10,2013-06-03 07:19:00,
2013-06-03 03:34:00,54.1,47.0,29.93,North,355,0.0,9.0,78,0.00,,,0.00,weatherlink.com 1.10,2013-06-03 07:34:00,
2013-06-03 03:49:00,53.8,47.0,29.93,NW,311,2.0,8.0,78,0.00,,,0.00,weatherlink.com 1.10,2013-06-03 07:49:00,
2013-06-03 04:04:00,53.6,47.0,29.93,NW,315,3.0,7.0,79,0.00,,,0.00,weatherlink.com 1.10,2013-06-03 08:04:00,
2013-06-03 04:19:00,53.4,47.0,29.92,North,5,4.0,8.0,80,0.00,,,0.00,weatherlink.com 1.10,2013-06-03 08:19:00,
2013-06-03 04:34:00,52.8,47.0,29.93,North,5,2.0,9.0,80,0.00,,,0.00,weatherlink.com 1.10,2013-06-03 08:34:00,
2013-06-03 04:49:00,52.7,47.0,29.94,NNW,340,2.0,8.0,81,0.00,,,0.00,weatherlink.com 1.10,2013-06-03 08:49:00,
2013-06-03 05:04:00,52.1,46.0,29.95,NW,326,5.0,11.0,81,0.00,,,0.00,weatherlink.com 1.10,2013-06-03 09:04:00,
2013-06-03 05:19:00,51.6,46.0,29.95,North,350,5.0,9.0,80,0.00,,,0.00,weatherlink.com 1.10,2013-06-03 09:19:00,
2013-06-03 05:34:00,51.0,46.0,29.96,NNE,24,5.0,9.0,82,0.00,,,0.00,weatherlink.com 1.10,2013-06-03 09:34:00,
2013-06-03 05:49:00,50.3,45.0,29.96,NNW,348,2.0,10.0,82,0.00,,,0.00,weatherlink.com 1.10,2013-06-03 09:49:00,
2013-06-03 06:04:00,50.2,45.0,29.96,NNE,25,7.0,9.0,81,0.00,,,0.00,weatherlink.com 1.10,2013-06-03 10:04:00,
2013-06-03 06:20:00,50.1,45.0,29.97,NNE,18,6.0,7.0,81,0.00,,,0.00,weatherlink.com 1.10,2013-06-03 10:20:00,
2013-06-03 06:35:00,50.1,44.0,29.97,NE,35,1.0,10.0,80,0.00,,,0.00,weatherlink.com 1.10,2013-06-03 10:35:00,
2013-06-03 06:50:00,49.9,44.0,29.98,NNW,345,8.0,8.0,79,0.00,,,0.00,weatherlink.com 1.10,2013-06-03 10:50:00,
2013-06-03 07:05:00,49.7,43.0,29.98,North,5,2.0,7.0,79,0.00,,,0.00,weatherlink.com 1.10,2013-06-03 11:05:00,
2013-06-03 07:20:00,49.8,44.0,29.98,NNE,13,5.0,8.0,79,0.00,,,0.00,weatherlink.com 1.10,2013-06-03 11:20:00,
2013-06-03 07:35:00,49.3,43.0,29.98,NNE,24,1.0,9.0,80,0.00,,,0.00,weatherlink.com 1.10,2013-06-03 11:35:00,
2013-06-03 07:50:00,49.2,43.0,29.98,ENE,60,5.0,8.0,80,0.00,,,0.00,weatherlink.com 1.10,2013-06-03 11:50:00,
2013-06-03 08:05:00,49.2,43.0,29.99,NNE,30,4.0,8.0,80,0.00,,,0.00,weatherlink.com 1.10,2013-06-03 12:05:00,
2013-06-03 08:20:00,49.1,43.0,30.00,NNW,327,3.0,7.0,80,0.00,,,0.00,weatherlink.com 1.10,2013-06-03 12:20:00,
2013-06-03 08:35:00,49.2,43.0,30.00,NW,313,1.0,7.0,80,0.00,,,0.00,weatherlink.com 1.10,2013-06-03 12:35:00,
2013-06-03 08:50:00,49.3,43.0,30.01,North,5,2.0,9.0,79,0.00,,,0.00,weatherlink.com 1.10,2013-06-03 12:50:00,
2013-06-03 09:05:00,49.4,44.0,30.01,North,360,4.0,7.0,80,0.00,,,0.00,weatherlink.com 1.10,2013-06-03 13:05:00,
2013-06-03 09:20:00,49.9,44.0,30.01,NNW,345,1.0,5.0,79,0.00,,,0.00,weatherlink.com 1.10,2013-06-03 13:20:00,
2013-06-03 09:35:00,50.3,43.0,30.01,NW,325,3.0,6.0,77,0.00,,,0.00,weatherlink.com 1.10,2013-06-03 13:35:00,
2013-06-03 09:50:00,50.4,44.0,30.01,NW,313,1.0,8.0,78,0.00,,,0.00,weatherlink.com 1.10,2013-06-03 13:50:00,
2013-06-03 10:05:00,50.9,44.0,30.02,NW,304,7.0,7.0,76,0.00,,,0.00,weatherlink.com 1.10,2013-06-03 14:05:00,
2013-06-03 10:20:00,51.8,44.0,30.01,North,360,2.0,7.0,74,0.00,,,0.00,weatherlink.com 1.10,2013-06-03 14:20:00,
2013-06-03 10:35:00,52.5,44.0,30.01,North,355,4.0,9.0,72,0.00,,,0.00,weatherlink.com 1.10,2013-06-03 14:35:00,
2013-06-03 10:50:00,52.6,44.0,30.02,WNW,300,1.0,7.0,73,0.00,,,0.00,weatherlink.com 1.10,2013-06-03 14:50:00,
2013-06-03 11:05:00,52.6,44.0,30.02,North,360,5.0,9.0,73,0.00,,,0.00,weatherlink.com 1.10,2013-06-03 15:05:00,
2013-06-03 11:20:00,53.0,44.0,30.02,North,5,6.0,12.0,72,0.00,,,0.00,weatherlink.com 1.10,2013-06-03 15:20:00,
2013-06-03 11:35:00,53.7,43.0,30.02,NW,315,2.0,10.0,68,0.00,,,0.00,weatherlink.com 1.10,2013-06-03 15:35:00,
2013-06-03 11:50:00,53.9,43.0,30.02,SW,236,2.0,12.0,67,0.00,,,0.00,weatherlink.com 1.10,2013-06-03 15:50:00,
2013-06-03 12:05:00,53.9,43.0,30.03,WNW,284,0.0,9.0,68,0.00,,,0.00,weatherlink.com 1.10,2013-06-03 16:05:00,
2013-06-03 12:20:00,53.7,43.0,30.03,NNE,17,3.0,12.0,67,0.00,,,0.00,weatherlink.com 1.10,2013-06-03 16:20:00,
2013-06-03 12:35:00,53.6,43.0,30.03,WNW,302,4.0,11.0,68,0.00,,,0.00,weatherlink.com 1.10,2013-06-03 16:35:00,
2013-06-03 12:50:00,54.4,43.0,30.03,WNW,300,2.0,10.0,66,0.00,,,0.00,weatherlink.com 1.10,2013-06-03 16:50:00,
2013-06-03 13:05:00,55.3,44.0,30.03,WNW,292,4.0,11.0,65,0.00,,,0.00,weatherlink.com 1.10,2013-06-03 17:05:00,
2013-06-03 13:20:00,54.7,43.0,30.03,WNW,287,5.0,14.0,66,0.00,,,0.00,weatherlink.com 1.10,2013-06-03 17:20:00,
2013-06-03 13:35:00,54.4,43.0,30.03,West,273,9.0,11.0,65,0.00,,,0.00,weatherlink.com 1.10,2013-06-03 17:35:00,
2013-06-03 13:50:00,54.7,42.0,30.03,NW,312,4.0,14.0,63,0.00,,,0.00,weatherlink.com 1.10,2013-06-03 17:50:00,
2013-06-03 14:05:00,55.7,43.0,30.02,West,268,7.0,9.0,63,0.00,,,0.00,weatherlink.com 1.10,2013-06-03 18:05:00,
2013-06-03 14:20:00,55.7,43.0,30.02,WNW,282,4.0,13.0,63,0.00,,,0.00,weatherlink.com 1.10,2013-06-03 18:20:00,
2013-06-03 14:35:00,55.3,42.0,30.02,West,269,2.0,14.0,62,0.00,,,0.00,weatherlink.com 1.10,2013-06-03 18:35:00,
2013-06-03 14:50:00,55.7,42.0,30.02,North,355,3.0,11.0,61,0.00,,,0.00,weatherlink.com 1.10,2013-06-03 18:50:00,
2013-06-03 15:05:00,55.8,43.0,30.02,WNW,282,6.0,13.0,63,0.00,,,0.00,weatherlink.com 1.10,2013-06-03 19:05:00,
2013-06-03 15:20:00,56.4,42.0,30.01,SSW,211,4.0,11.0,60,0.00,,,0.00,weatherlink.com 1.10,2013-06-03 19:20:00,
2013-06-03 15:35:00,57.2,42.0,30.01,NNW,333,2.0,10.0,57,0.00,,,0.00,weatherlink.com 1.10,2013-06-03 19:35:00,
2013-06-03 15:50:00,57.7,43.0,30.01,NW,317,1.0,7.0,58,0.00,,,0.00,weatherlink.com 1.10,2013-06-03 19:50:00,
2013-06-03 16:05:00,57.4,41.0,30.01,West,263,2.0,8.0,55,0.00,,,0.00,weatherlink.com 1.10,2013-06-03 20:05:00,
2013-06-03 16:20:00,57.3,42.0,30.01,West,281,3.0,9.0,56,0.00,,,0.00,weatherlink.com 1.10,2013-06-03 20:20:00,
2013-06-03 16:35:00,57.8,42.0,30.01,WNW,292,7.0,9.0,55,0.00,,,0.00,weatherlink.com 1.10,2013-06-03 20:35:00,
2013-06-03 16:50:00,58.6,42.0,30.00,West,269,3.0,7.0,54,0.00,,,0.00,weatherlink.com 1.10,2013-06-03 20:50:00,
2013-06-03 17:05:00,58.8,42.0,30.00,NW,315,1.0,7.0,55,0.00,,,0.00,weatherlink.com 1.10,2013-06-03 21:05:00,
2013-06-03 17:20:00,59.2,43.0,30.00,West,276,4.0,9.0,55,0.00,,,0.00,weatherlink.com 1.10,2013-06-03 21:20:00,
2013-06-03 17:35:00,59.0,43.0,30.00,WNW,302,3.0,9.0,56,0.00,,,0.00,weatherlink.com 1.10,2013-06-03 21:35:00,
2013-06-03 17:50:00,58.8,42.0,30.00,NW,325,6.0,11.0,55,0.00,,,0.00,weatherlink.com 1.10,2013-06-03 21:50:00,
2013-06-03 18:05:00,58.7,43.0,30.00,WNW,300,3.0,9.0,56,0.00,,,0.00,weatherlink.com 1.10,2013-06-03 22:05:00,
2013-06-03 18:20:00,58.3,43.0,30.00,West,266,4.0,10.0,58,0.00,,,0.00,weatherlink.com 1.10,2013-06-03 22:20:00,
2013-06-03 18:35:00,59.0,42.0,29.99,West,278,5.0,8.0,54,0.00,,,0.00,weatherlink.com 1.10,2013-06-03 22:35:00,
2013-06-03 18:50:00,58.8,43.0,30.01,West,281,3.0,9.0,56,0.00,,,0.00,weatherlink.com 1.10,2013-06-03 22:50:00,
2013-06-03 19:05:00,58.6,43.0,30.01,West,273,5.0,10.0,57,0.00,,,0.00,weatherlink.com 1.10,2013-06-03 23:05:00,
2013-06-03 19:20:00,58.3,43.0,30.02,NW,313,4.0,6.0,57,0.00,,,0.00,weatherlink.com 1.10,2013-06-03 23:20:00,
2013-06-03 19:35:00,57.7,43.0,30.02,West,277,3.0,8.0,59,0.00,,,0.00,weatherlink.com 1.10,2013-06-03 23:35:00,
2013-06-03 19:50:00,57.3,44.0,30.03,WNW,282,1.0,7.0,61,0.00,,,0.00,weatherlink.com 1.10,2013-06-03 23:50:00,
2013-06-03 20:05:00,56.8,44.0,30.03,NW,306,3.0,6.0,62,0.00,,,0.00,weatherlink.com 1.10,2013-06-04 00:05:00,
2013-06-03 20:20:00,56.1,44.0,30.03,WNW,288,2.0,5.0,64,0.00,,,0.00,weatherlink.com 1.10,2013-06-04 00:20:00,
2013-06-03 20:35:00,54.8,44.0,30.03,West,278,1.0,4.0,68,0.00,,,0.00,weatherlink.com 1.10,2013-06-04 00:35:00,
2013-06-03 20:50:00,53.7,44.0,30.03,West,278,0.0,2.0,71,0.00,,,0.00,weatherlink.com 1.10,2013-06-04 00:50:00,
2013-06-03 21:06:00,52.4,45.0,30.04,West,278,0.0,1.0,76,0.00,,,0.00,weatherlink.com 1.10,2013-06-04 01:06:00,
2013-06-03 21:21:00,50.7,46.0,30.03,West,275,2.0,2.0,83,0.00,,,0.00,weatherlink.com 1.10,2013-06-04 01:21:00,
2013-06-03 21:36:00,49.6,46.0,30.04,SW,222,1.0,2.0,87,0.00,,,0.00,weatherlink.com 1.10,2013-06-04 01:36:00,
2013-06-03 21:51:00,49.0,46.0,30.04,SW,222,0.0,2.0,88,0.00,,,0.00,weatherlink.com 1.10,2013-06-04 01:51:00,
2013-06-03 22:06:00,48.3,46.0,30.04,SW,222,0.0,1.0,90,0.00,,,0.00,weatherlink.com 1.10,2013-06-04 02:06:00,
2013-06-03 22:21:00,47.9,46.0,30.05,SW,222,0.0,2.0,91,0.00,,,0.00,weatherlink.com 1.10,2013-06-04 02:21:00,
2013-06-03 22:36:00,47.6,45.0,30.05,SW,217,1.0,3.0,92,0.00,,,0.00,weatherlink.com 1.10,2013-06-04 02:36:00,
2013-06-03 22:51:00,47.6,45.0,30.05,SW,217,0.0,2.0,92,0.00,,,0.00,weatherlink.com 1.10,2013-06-04 02:51:00,
2013-06-03 23:06:00,47.5,45.0,30.05,SW,217,0.0,3.0,92,0.00,,,0.00,weatherlink.com 1.10,2013-06-04 03:06:00,
2013-06-03 23:21:00,47.1,45.0,30.06,SSW,200,0.0,3.0,92,0.00,,,0.00,weatherlink.com 1.10,2013-06-04 03:21:00,